Weather Roundup
Issued by NWS Springfield, MO

Home | Current Version | Previous Version | Text Only | Print | Product List | Glossary On
Versions: 1 2 3 4 5 6 7 8 9 10 11 12 13 14 15 16 17 18 19 20 21 22 23 24 25 26 27 28 29 30 31 32 33 34 35 36 37 38 39 40 41 42 43 44 45 46 47 48 49 50
000
NZUS99 KSGF 232107
HRRSGF

HOURLY WEATHER
NATIONAL WEATHER SERVICE SPRINGFIELD MO
300 PM CST THU NOV 23 2017

......SGF CWA......

CITY           SKY/WX    TMP DP  RH WIND       PRES   REMARKS
SPRINGFIELD    SUNNY     63  30  28 SW10      29.99F
JOPLIN         SUNNY     62  31  31 W9        30.01F
WEST PLAINS    SUNNY     60  26  27 W7        30.01F
ROLLA          SUNNY     61  29  29 SW12      29.96F
OSAGE BEACH    SUNNY     61  30  31 W8        29.97F
BRANSON        MOSUNNY   63  27  25 SW7       30.01F

......SURROUNDING SGF CWA......

CITY           SKY/WX    TMP DP  RH WIND       PRES   REMARKS
CHANUTE        SUNNY     64  34  32 S7        30.00F
PARSONS        SUNNY     63  32  31 SW3       30.01F
COFFEYVILLE    SUNNY     65  31  28 SW6       30.01F
EMPORIA        SUNNY     70  37  29 CALM      29.97F
GROVE OK       SUNNY     64  32  29 W5        30.03S
ROGERS AR      SUNNY     61  29  29 W6        30.03F
SILOAM SPRINGS SUNNY     62  28  27 S7        30.03F
HARRISON AR    SUNNY     64  28  25 W9        30.01F
NEAR YELLVILLE SUNNY     64  28  25 N6        30.00F

......KANSAS AND MISSOURI......

CITY           SKY/WX    TMP DP  RH WIND       PRES   REMARKS
KANSAS CTY INT MOSUNNY   62  36  37 W5        29.96F
DOWNTOWN KC    SUNNY     63  35  35 VRB3      29.96F
COLUMBIA       SUNNY     57  32  38 W12       29.95F
SEDALIA        SUNNY     59  34  39 W9        29.98F
ST JOSEPH      SUNNY     65  37  35 CALM      29.94F
ST LOUIS       MOSUNNY   59  25  27 W6        29.95S
SPIRIT OF STL  SUNNY     60  27  28 W10       29.94F
KIRKSVILLE     SUNNY     57  34  41 W8        29.94F
WICHITA        MOSUNNY   70  38  31 S7        29.97F
TOPEKA         SUNNY     67  39  35 S3        29.95F
OLATHE         SUNNY     61  36  39 SW5       29.97F

......TENNESSEE......

CITY           SKY/WX    TMP DP  RH WIND       PRES   REMARKS
MEMPHIS        MOSUNNY   55  21  26 NW3       30.06F
NASHVILLE      MOSUNNY   54  20  26 NW5       30.05F

......ARKANSAS.......

CITY           SKY/WX    TMP DP  RH WIND       PRES   REMARKS
FAYETTEVILLE   SUNNY     62  29  28 W5        30.02F
FT SMITH       SUNNY     62  27  26 SW5       30.05F
LITTLE ROCK    MOSUNNY   59  22  24 NW5       30.07F

......OKLAHOMA.......

CITY           SKY/WX    TMP DP  RH WIND       PRES   REMARKS
TULSA          MOSUNNY   66  28  24 SE5       30.01F
PONCA CITY     SUNNY     68  33  27 S3        30.00F
MCALESTER      PTSUNNY   66  28  24 SW7       30.04F
OKLAHOMA CITY  MOSUNNY   69  30  23 CALM      30.02F

......IOWA............

CITY           SKY/WX    TMP DP  RH WIND       PRES   REMARKS
DES MOINES     PTSUNNY   53  31  42 CALM      29.91F
QUAD CITIES    SUNNY     50  25  37 VRB3      29.91F

......ILLINOIS........

CITY           SKY/WX    TMP DP  RH WIND       PRES   REMARKS
QUINCY         SUNNY     52  29  41 W5        29.93F
CHICAGO        MOSUNNY   45  24  43 SW12      29.91S



USA.gov is the U.S. government's official web portal to all federal, state and local government web resources and services.